Tracking 30995 objects as of 5-Jul-2025
HD Live streaming from Space Station
objects crossing your sky now

FENGYUN 1C DEB

Track FENGYUN 1C DEB now!
10-day predictions


NORAD ID: 31312
Int'l Code: 1999-025BPQ
Perigee: 855.7 km
Apogee: 941.9 km
Inclination: 98.8 °
Period: 102.8 minutes
Semi major axis: 7269 km
RCS: 0.0157 m2 (small)
Launch date: May 10, 1999
Source: People's Republic of China (PRC)
Launch site: Taiyaun Space Center, China (TSC)

Note: This is SATELLITE DEBRIS
Your satellite tracking list
STARLINK-1477
Track 1 satellite(s)




NASA's NSSDC Master Catalog

Two Line Element Set (TLE):
1 31312U 99025BPQ 25185.83663492  .00000328  00000-0  24568-3 0  9998
2 31312  98.8294 176.6424 0059299 324.8182 152.8736 14.00623200928935
Source of the keplerian elements: AFSPC